User: anonymous   Login
Location: Branche des Alpilles
(43.6087°N, 4.6976°E)
Time: 01:55:04
(UTC+00:00)
Language:

YAOGAN 6 - Orbit

View from above orbital plane
View from above orbital plane
View from above satellite
View from above satellite

Ground track
Ground track

The orbit data is extracted from the following two-line orbital elements,

1 34839U 09021A   21060.39132000  .00000718  00000-0  29148-4 0  9990
2 34839  97.0449  60.2841 0027477 181.5228 178.5933 15.27308951658991
Epoch (UTC): 01 March 2021 09:23:30
Eccentricity: 0.0027477
inclination: 97.0449°
perigee height: 465 km
apogee height: 503 km
right ascension of ascending node: 60.2841°
argument of perigee: 181.5228°
revolutions per day: 15.27308951
mean anomaly at epoch: 178.5933°
orbit number at epoch: 65899

The dashed part of the orbit path shows where the satellite is in the earth's shadow,  

DLR